WTB2JB EKVG-BIRK

Flight info

Callsign WTB2JB
Flight time 1h 47m
Altitude 18000
Route MY DCT NASBU
Aircraft B58T/L-SDFGRY/C

Departure

Time 2026-04-21 18:47
Airport Vágar Airport (EKVG)

Arrival

Time 2026-04-21 20:34
Airport Reykjavík Domestic Airport (BIRK)
Time Latitude Longitude Altitude Speed Heading
2026-04-21 18:42 62.06731 -7.28127 273 ft 0 kts 73°
2026-04-21 18:43 62.06729 -7.28098 273 ft 10 kts 116°
2026-04-21 18:43 62.06650 -7.28065 273 ft 0 kts 195°
2026-04-21 18:45 62.06649 -7.28066 273 ft 3 kts 195°
2026-04-21 18:46 62.06559 -7.28104 272 ft 16 kts 199°
2026-04-21 18:46 62.06490 -7.28143 275 ft 7 kts 212°
2026-04-21 18:46 62.06603 -7.28702 269 ft 88 kts 298°
2026-04-21 18:46 62.06931 -7.30147 483 ft 116 kts 295°
2026-04-21 18:47 62.07193 -7.31805 961 ft 120 kts 286°
2026-04-21 18:47 62.07362 -7.33608 1300 ft 128 kts 281°
2026-04-21 18:47 62.07478 -7.35518 1683 ft 131 kts 277°
2026-04-21 18:47 62.07509 -7.37473 2069 ft 133 kts 273°
2026-04-21 18:48 62.07724 -7.39402 2236 ft 145 kts 299°
2026-04-21 18:48 62.08298 -7.41194 2455 ft 145 kts 309°
2026-04-21 18:48 62.08938 -7.42822 2737 ft 143 kts 309°
2026-04-21 18:48 62.09502 -7.44555 3028 ft 141 kts 304°
2026-04-21 18:49 62.10031 -7.46256 3418 ft 137 kts 305°
2026-04-21 18:49 62.10545 -7.47973 3754 ft 138 kts 303°
2026-04-21 18:49 62.10825 -7.49220 3975 ft 140 kts 285°
2026-04-21 18:49 62.10684 -7.52033 4351 ft 151 kts 260°
2026-04-21 18:50 62.10557 -7.54285 4684 ft 156 kts 271°
2026-04-21 18:50 62.10619 -7.56629 5084 ft 160 kts 279°
2026-04-21 18:50 62.10843 -7.58967 5510 ft 161 kts 291°
2026-04-21 18:50 62.11273 -7.61184 5902 ft 162 kts 297°
2026-04-21 18:51 62.11760 -7.63375 6307 ft 164 kts 299°
2026-04-21 18:51 62.12263 -7.65572 6705 ft 165 kts 300°
2026-04-21 18:51 62.12773 -7.67781 7104 ft 166 kts 300°
2026-04-21 18:51 62.13288 -7.70006 7483 ft 167 kts 300°
2026-04-21 18:52 62.13805 -7.72241 7863 ft 168 kts 300°
2026-04-21 18:52 62.14325 -7.74493 8250 ft 169 kts 300°
2026-04-21 18:52 62.14846 -7.76752 8643 ft 170 kts 300°
2026-04-21 18:52 62.15369 -7.79025 9044 ft 171 kts 300°
2026-04-21 18:53 62.15894 -7.81308 9446 ft 171 kts 300°
2026-04-21 18:53 62.16421 -7.83605 9857 ft 173 kts 300°
2026-04-21 18:53 62.16948 -7.85902 10275 ft 172 kts 300°
2026-04-21 18:53 62.17466 -7.88168 10665 ft 172 kts 301°
2026-04-21 18:54 62.17991 -7.90464 11031 ft 172 kts 301°
2026-04-21 18:54 62.18520 -7.92774 11396 ft 173 kts 301°
2026-04-21 18:54 62.19052 -7.95103 11765 ft 174 kts 301°
2026-04-21 18:54 62.19586 -7.97444 12138 ft 176 kts 301°
2026-04-21 18:55 62.19949 -7.99033 12391 ft 176 kts 302°
2026-04-21 18:55 62.20665 -8.02179 12897 ft 178 kts 302°
2026-04-21 18:55 62.21210 -8.04573 13285 ft 180 kts 302°
2026-04-21 18:55 62.21758 -8.06987 13678 ft 181 kts 302°
2026-04-21 18:56 62.22311 -8.09423 14077 ft 182 kts 302°
2026-04-21 18:56 62.22866 -8.11874 14475 ft 184 kts 302°
2026-04-21 18:56 62.23425 -8.14344 14835 ft 185 kts 302°
2026-04-21 18:56 62.23988 -8.16833 15193 ft 186 kts 303°
2026-04-21 18:57 62.24554 -8.19339 15558 ft 187 kts 303°
2026-04-21 18:57 62.25123 -8.21861 15928 ft 188 kts 303°
2026-04-21 18:57 62.25695 -8.24399 16303 ft 190 kts 303°
2026-04-21 18:57 62.26270 -8.26955 16682 ft 191 kts 303°
2026-04-21 18:58 62.26848 -8.29528 17066 ft 192 kts 303°
2026-04-21 18:58 62.27428 -8.32117 17448 ft 193 kts 303°
2026-04-21 18:58 62.28011 -8.34722 17831 ft 194 kts 303°
2026-04-21 18:58 62.28590 -8.37307 18221 ft 195 kts 303°
2026-04-21 18:59 62.29181 -8.39949 18617 ft 197 kts 303°
2026-04-21 18:59 62.29810 -8.42722 18671 ft 215 kts 303°
2026-04-21 18:59 62.30491 -8.45719 18688 ft 231 kts 302°
2026-04-21 18:59 62.31212 -8.48912 18693 ft 243 kts 302°
2026-04-21 19:00 62.31954 -8.52237 18692 ft 250 kts 301°
2026-04-21 19:00 62.32710 -8.55650 18692 ft 255 kts 301°
2026-04-21 19:00 62.33474 -8.59115 18692 ft 258 kts 301°
2026-04-21 19:00 62.34246 -8.62617 18692 ft 260 kts 301°
2026-04-21 19:01 62.35022 -8.66146 18692 ft 261 kts 301°
2026-04-21 19:01 62.35801 -8.69685 18691 ft 262 kts 301°
2026-04-21 19:01 62.36582 -8.73242 18691 ft 263 kts 301°
2026-04-21 19:01 62.37364 -8.76802 18692 ft 263 kts 301°
2026-04-21 19:02 62.38146 -8.80366 18683 ft 263 kts 301°
2026-04-21 19:02 62.38927 -8.83933 18693 ft 263 kts 301°
2026-04-21 19:02 62.39709 -8.87509 18692 ft 264 kts 300°
2026-04-21 19:02 62.40490 -8.91086 18694 ft 264 kts 300°
2026-04-21 19:03 62.41260 -8.94620 18697 ft 264 kts 300°
2026-04-21 19:03 62.42040 -8.98205 18697 ft 264 kts 300°
2026-04-21 19:03 62.42821 -9.01795 18696 ft 264 kts 300°
2026-04-21 19:03 62.43600 -9.05389 18696 ft 264 kts 300°
2026-04-21 19:04 62.44379 -9.08986 18694 ft 264 kts 300°
2026-04-21 19:04 62.45155 -9.12579 18695 ft 264 kts 300°
2026-04-21 19:04 62.45932 -9.16177 18696 ft 264 kts 300°
2026-04-21 19:04 62.46709 -9.19784 18694 ft 264 kts 300°
2026-04-21 19:05 62.47483 -9.23383 18697 ft 264 kts 300°
2026-04-21 19:05 62.48258 -9.26994 18697 ft 264 kts 300°
2026-04-21 19:05 62.49030 -9.30597 18695 ft 264 kts 300°
2026-04-21 19:05 62.49803 -9.34208 18695 ft 264 kts 300°
2026-04-21 19:06 62.50574 -9.37819 18698 ft 264 kts 300°
2026-04-21 19:06 62.51345 -9.41433 18680 ft 264 kts 300°
2026-04-21 19:06 62.52111 -9.45034 18688 ft 263 kts 299°
2026-04-21 19:06 62.52874 -9.48628 18692 ft 263 kts 299°
2026-04-21 19:07 62.53637 -9.52222 18697 ft 263 kts 299°
2026-04-21 19:07 62.54398 -9.55817 18696 ft 263 kts 299°
2026-04-21 19:07 62.55159 -9.59416 18696 ft 263 kts 299°
2026-04-21 19:07 62.55918 -9.63013 18688 ft 262 kts 299°
2026-04-21 19:08 62.56676 -9.66607 18695 ft 262 kts 299°
2026-04-21 19:08 62.57431 -9.70200 18695 ft 262 kts 299°
2026-04-21 19:08 62.58187 -9.73800 18696 ft 262 kts 298°
2026-04-21 19:08 62.58940 -9.77397 18696 ft 262 kts 298°
2026-04-21 19:09 62.59694 -9.80998 18694 ft 262 kts 298°
2026-04-21 19:09 62.60445 -9.84596 18695 ft 262 kts 298°
2026-04-21 19:09 62.61197 -9.88203 18696 ft 262 kts 298°
2026-04-21 19:09 62.61948 -9.91812 18696 ft 262 kts 298°
2026-04-21 19:10 62.62697 -9.95416 18698 ft 262 kts 298°
2026-04-21 19:10 62.63446 -9.99030 18697 ft 262 kts 298°
2026-04-21 19:10 62.64194 -10.02640 18697 ft 262 kts 298°
2026-04-21 19:10 62.64942 -10.06263 18696 ft 262 kts 298°
2026-04-21 19:11 62.65689 -10.09881 18699 ft 262 kts 298°
2026-04-21 19:11 62.66434 -10.13501 18698 ft 262 kts 298°
2026-04-21 19:11 62.67179 -10.17124 18698 ft 262 kts 298°
2026-04-21 19:11 62.67922 -10.20745 18698 ft 262 kts 298°
2026-04-21 19:12 62.68414 -10.23146 18696 ft 262 kts 298°
2026-04-21 19:12 62.69406 -10.27995 18698 ft 262 kts 298°
2026-04-21 19:12 62.70136 -10.31573 18698 ft 262 kts 298°
2026-04-21 19:12 62.70877 -10.35207 18698 ft 262 kts 298°
2026-04-21 19:13 62.71615 -10.38834 18701 ft 262 kts 298°
2026-04-21 19:13 62.72354 -10.42474 18700 ft 262 kts 298°
2026-04-21 19:13 62.73091 -10.46109 18696 ft 262 kts 298°
2026-04-21 19:13 62.73827 -10.49747 18693 ft 262 kts 298°
2026-04-21 19:14 62.74561 -10.53380 18689 ft 261 kts 297°
2026-04-21 19:14 62.75290 -10.56999 18694 ft 260 kts 297°
2026-04-21 19:14 62.76017 -10.60611 18700 ft 260 kts 297°
2026-04-21 19:14 62.76743 -10.64226 18697 ft 260 kts 297°
2026-04-21 19:15 62.77467 -10.67838 18691 ft 259 kts 297°
2026-04-21 19:15 62.78189 -10.71446 18699 ft 259 kts 297°
2026-04-21 19:15 62.78911 -10.75057 18696 ft 259 kts 297°
2026-04-21 19:15 62.79632 -10.78669 18702 ft 259 kts 297°
2026-04-21 19:16 62.80350 -10.82279 18699 ft 259 kts 297°
2026-04-21 19:16 62.81070 -10.85897 18692 ft 259 kts 297°
2026-04-21 19:16 62.81788 -10.89515 18703 ft 259 kts 297°
2026-04-21 19:16 62.82505 -10.93136 18694 ft 259 kts 297°
2026-04-21 19:17 62.83935 -11.00377 18690 ft 259 kts 297°
2026-04-21 19:17 62.84649 -11.03999 18691 ft 259 kts 297°
2026-04-21 19:17 62.85362 -11.07624 18690 ft 259 kts 297°
2026-04-21 19:18 62.86074 -11.11253 18691 ft 259 kts 297°
2026-04-21 19:18 62.86785 -11.14883 18692 ft 259 kts 297°
2026-04-21 19:18 62.87496 -11.18516 18696 ft 259 kts 297°
2026-04-21 19:18 62.88205 -11.22146 18692 ft 259 kts 297°
2026-04-21 19:19 62.88912 -11.25778 18694 ft 259 kts 297°
2026-04-21 19:19 62.89619 -11.29412 18694 ft 259 kts 297°
2026-04-21 19:19 62.90318 -11.33011 18693 ft 260 kts 297°
2026-04-21 19:19 62.91025 -11.36657 18698 ft 260 kts 297°
2026-04-21 19:20 62.91732 -11.40310 18692 ft 260 kts 296°
2026-04-21 19:20 62.92439 -11.43969 18690 ft 260 kts 296°
2026-04-21 19:20 62.93144 -11.47626 18692 ft 260 kts 296°
2026-04-21 19:20 62.93848 -11.51288 18691 ft 260 kts 296°
2026-04-21 19:21 62.94552 -11.54948 18688 ft 260 kts 296°
2026-04-21 19:21 62.95255 -11.58617 18693 ft 260 kts 296°
2026-04-21 19:21 62.95957 -11.62285 18685 ft 260 kts 296°
2026-04-21 19:21 62.96656 -11.65943 18689 ft 259 kts 296°
2026-04-21 19:22 62.97352 -11.69599 18693 ft 259 kts 296°
2026-04-21 19:22 62.98048 -11.73251 18692 ft 259 kts 296°
2026-04-21 19:22 62.98741 -11.76900 18693 ft 259 kts 296°
2026-04-21 19:22 62.99434 -11.80557 18691 ft 259 kts 296°
2026-04-21 19:23 63.00126 -11.84210 18693 ft 259 kts 296°
2026-04-21 19:23 63.00583 -11.86630 18694 ft 259 kts 296°
2026-04-21 19:23 63.01273 -11.90288 18693 ft 259 kts 296°
2026-04-21 19:23 63.01964 -11.93953 18694 ft 259 kts 296°
2026-04-21 19:24 63.02653 -11.97617 18698 ft 259 kts 296°
2026-04-21 19:24 63.03340 -12.01280 18692 ft 259 kts 296°
2026-04-21 19:24 63.04028 -12.04953 18693 ft 259 kts 296°
2026-04-21 19:24 63.04713 -12.08616 18694 ft 259 kts 296°
2026-04-21 19:25 63.05399 -12.12291 18687 ft 259 kts 296°
2026-04-21 19:25 63.06083 -12.15962 18688 ft 259 kts 296°
2026-04-21 19:25 63.06767 -12.19642 18691 ft 259 kts 296°
2026-04-21 19:25 63.07450 -12.23323 18692 ft 259 kts 296°
2026-04-21 19:26 63.08132 -12.27005 18693 ft 260 kts 296°
2026-04-21 19:26 63.08814 -12.30699 18688 ft 260 kts 296°
2026-04-21 19:26 63.09488 -12.34335 18688 ft 260 kts 296°
2026-04-21 19:26 63.10174 -12.38023 18688 ft 260 kts 296°
2026-04-21 19:27 63.10862 -12.41715 18688 ft 260 kts 296°
2026-04-21 19:27 63.11551 -12.45401 18688 ft 260 kts 296°
2026-04-21 19:27 63.12242 -12.49091 18688 ft 260 kts 296°
2026-04-21 19:27 63.12933 -12.52771 18688 ft 260 kts 296°
2026-04-21 19:28 63.13627 -12.56455 18688 ft 260 kts 296°
2026-04-21 19:28 63.14323 -12.60138 18688 ft 260 kts 296°
2026-04-21 19:28 63.15021 -12.63826 18688 ft 260 kts 296°
2026-04-21 19:28 63.15720 -12.67509 18688 ft 260 kts 296°
2026-04-21 19:29 63.16420 -12.71187 18688 ft 260 kts 296°
2026-04-21 19:29 63.17123 -12.74870 18676 ft 259 kts 296°
2026-04-21 19:29 63.17824 -12.78534 18683 ft 258 kts 296°
2026-04-21 19:29 63.18525 -12.82189 18680 ft 258 kts 296°
2026-04-21 19:30 63.19226 -12.85838 18684 ft 257 kts 296°
2026-04-21 19:30 63.19929 -12.89480 18685 ft 257 kts 296°
2026-04-21 19:30 63.20633 -12.93124 18685 ft 257 kts 296°
2026-04-21 19:30 63.21328 -12.96712 18685 ft 257 kts 296°
2026-04-21 19:31 63.22036 -13.00349 18682 ft 257 kts 296°
2026-04-21 19:31 63.22744 -13.03983 18683 ft 257 kts 297°
2026-04-21 19:31 63.23455 -13.07619 18685 ft 257 kts 297°
2026-04-21 19:31 63.24168 -13.11261 18685 ft 257 kts 297°
2026-04-21 19:32 63.24883 -13.14898 18685 ft 257 kts 297°
2026-04-21 19:32 63.25600 -13.18536 18680 ft 257 kts 297°
2026-04-21 19:32 63.26319 -13.22178 18680 ft 257 kts 297°
2026-04-21 19:32 63.27040 -13.25818 18680 ft 257 kts 297°
2026-04-21 19:33 63.27763 -13.29457 18680 ft 257 kts 297°
2026-04-21 19:33 63.28486 -13.33091 18680 ft 257 kts 297°
2026-04-21 19:33 63.29212 -13.36725 18680 ft 257 kts 297°
2026-04-21 19:33 63.29941 -13.40365 18680 ft 257 kts 297°
2026-04-21 19:34 63.30670 -13.43997 18680 ft 257 kts 297°
2026-04-21 19:34 63.31401 -13.47628 18679 ft 257 kts 297°
2026-04-21 19:34 63.32133 -13.51257 18679 ft 257 kts 297°
2026-04-21 19:34 63.32869 -13.54890 18680 ft 257 kts 297°
2026-04-21 19:35 63.33604 -13.58512 18677 ft 257 kts 297°
2026-04-21 19:35 63.35072 -13.65716 18674 ft 257 kts 298°
2026-04-21 19:35 63.35814 -13.69343 18674 ft 257 kts 298°
2026-04-21 19:36 63.36556 -13.72962 18673 ft 257 kts 298°
2026-04-21 19:36 63.37301 -13.76584 18674 ft 257 kts 298°
2026-04-21 19:36 63.38048 -13.80206 18675 ft 257 kts 298°
2026-04-21 19:36 63.38796 -13.83820 18669 ft 256 kts 298°
2026-04-21 19:37 63.39542 -13.87418 18670 ft 255 kts 298°
2026-04-21 19:37 63.40288 -13.91007 18674 ft 255 kts 298°
2026-04-21 19:37 63.41035 -13.94591 18676 ft 255 kts 298°
2026-04-21 19:37 63.41784 -13.98175 18676 ft 255 kts 298°
2026-04-21 19:38 63.42534 -14.01755 18663 ft 255 kts 298°
2026-04-21 19:38 63.43220 -14.05406 18663 ft 255 kts 295°
2026-04-21 19:38 63.43817 -14.09134 18661 ft 257 kts 283°
2026-04-21 19:38 63.43832 -14.13154 18665 ft 260 kts 268°
2026-04-21 19:39 63.43650 -14.17182 18665 ft 261 kts 265°
2026-04-21 19:39 63.43426 -14.21212 18667 ft 262 kts 266°
2026-04-21 19:39 63.43445 -14.25241 18666 ft 259 kts 280°
2026-04-21 19:39 63.43797 -14.29169 18667 ft 257 kts 288°
2026-04-21 19:40 63.44309 -14.32996 18667 ft 257 kts 291°
2026-04-21 19:40 63.44892 -14.36760 18666 ft 256 kts 293°
2026-04-21 19:40 63.45505 -14.40497 18666 ft 256 kts 294°
2026-04-21 19:40 63.46119 -14.44176 18667 ft 256 kts 294°
2026-04-21 19:41 63.46743 -14.47911 18666 ft 256 kts 294°
2026-04-21 19:41 63.47365 -14.51645 18666 ft 257 kts 294°
2026-04-21 19:41 63.47985 -14.55390 18666 ft 257 kts 294°
2026-04-21 19:41 63.48602 -14.59133 18666 ft 257 kts 294°
2026-04-21 19:42 63.49218 -14.62887 18658 ft 257 kts 294°
2026-04-21 19:42 63.49831 -14.66635 18658 ft 257 kts 294°
2026-04-21 19:42 63.50444 -14.70393 18658 ft 257 kts 294°
2026-04-21 19:42 63.51055 -14.74150 18655 ft 257 kts 294°
2026-04-21 19:43 63.51665 -14.77909 18660 ft 257 kts 294°
2026-04-21 19:43 63.52276 -14.81675 18661 ft 257 kts 294°
2026-04-21 19:43 63.52885 -14.85442 18661 ft 257 kts 294°
2026-04-21 19:43 63.53493 -14.89209 18661 ft 257 kts 294°
2026-04-21 19:44 63.54102 -14.92991 18661 ft 258 kts 294°
2026-04-21 19:44 63.54710 -14.96773 18661 ft 258 kts 294°
2026-04-21 19:44 63.55317 -15.00555 18661 ft 258 kts 294°
2026-04-21 19:44 63.55921 -15.04336 18661 ft 258 kts 294°
2026-04-21 19:45 63.56527 -15.08126 18661 ft 257 kts 292°
2026-04-21 19:45 63.57120 -15.11846 18643 ft 256 kts 292°
2026-04-21 19:45 63.57717 -15.15608 18650 ft 255 kts 292°
2026-04-21 19:45 63.58314 -15.19363 18647 ft 255 kts 292°
2026-04-21 19:46 63.58907 -15.23108 18649 ft 255 kts 293°
2026-04-21 19:46 63.59499 -15.26855 18653 ft 255 kts 292°
2026-04-21 19:46 63.60090 -15.30603 18654 ft 254 kts 292°
2026-04-21 19:46 63.60680 -15.34352 18654 ft 254 kts 292°
2026-04-21 19:47 63.61269 -15.38099 18654 ft 254 kts 292°
2026-04-21 19:47 63.61857 -15.41844 18653 ft 254 kts 294°
2026-04-21 19:47 63.62445 -15.45605 18651 ft 255 kts 294°
2026-04-21 19:47 63.63033 -15.49366 18652 ft 255 kts 293°
2026-04-21 19:48 63.63619 -15.53126 18652 ft 255 kts 293°
2026-04-21 19:48 63.64204 -15.56894 18643 ft 255 kts 294°
2026-04-21 19:48 63.64789 -15.60659 18637 ft 255 kts 294°
2026-04-21 19:48 63.65373 -15.64435 18642 ft 255 kts 293°
2026-04-21 19:49 63.65956 -15.68214 18639 ft 255 kts 292°
2026-04-21 19:49 63.66538 -15.71986 18642 ft 255 kts 292°
2026-04-21 19:49 63.67118 -15.75761 18645 ft 255 kts 292°
2026-04-21 19:49 63.67700 -15.79544 18642 ft 255 kts 293°
2026-04-21 19:50 63.68084 -15.82055 18642 ft 255 kts 292°
2026-04-21 19:50 63.68858 -15.87111 18641 ft 255 kts 293°
2026-04-21 19:50 63.69435 -15.90896 18645 ft 255 kts 292°
2026-04-21 19:50 63.70012 -15.94685 18644 ft 255 kts 292°
2026-04-21 19:51 63.70578 -15.98420 18639 ft 255 kts 291°
2026-04-21 19:51 63.71160 -16.02258 18645 ft 255 kts 291°
2026-04-21 19:51 63.71725 -16.05991 18637 ft 255 kts 291°
2026-04-21 19:51 63.72296 -16.09776 18632 ft 255 kts 291°
2026-04-21 19:52 63.72866 -16.13560 18633 ft 255 kts 291°
2026-04-21 19:52 63.73436 -16.17352 18638 ft 255 kts 291°
2026-04-21 19:52 63.74004 -16.21141 18628 ft 255 kts 291°
2026-04-21 19:52 63.74571 -16.24932 18634 ft 255 kts 291°
2026-04-21 19:53 63.75137 -16.28724 18637 ft 255 kts 291°
2026-04-21 19:53 63.75703 -16.32517 18627 ft 255 kts 291°
2026-04-21 19:53 63.76266 -16.36306 18632 ft 255 kts 291°
2026-04-21 19:53 63.76829 -16.40101 18627 ft 255 kts 291°
2026-04-21 19:54 63.77391 -16.43899 18634 ft 255 kts 291°
2026-04-21 19:54 63.77952 -16.47700 18634 ft 255 kts 292°
2026-04-21 19:54 63.78514 -16.51507 18634 ft 255 kts 292°
2026-04-21 19:54 63.79074 -16.55318 18623 ft 255 kts 291°
2026-04-21 19:55 63.79633 -16.59128 18622 ft 255 kts 292°
2026-04-21 19:55 63.80150 -16.62981 18621 ft 257 kts 288°
2026-04-21 19:55 63.80471 -16.66973 18627 ft 259 kts 279°
2026-04-21 19:55 63.80644 -16.71028 18630 ft 259 kts 279°
2026-04-21 19:56 63.80850 -16.75074 18627 ft 259 kts 281°
2026-04-21 19:56 63.81068 -16.79115 18627 ft 259 kts 281°
2026-04-21 19:56 63.81284 -16.83162 18627 ft 259 kts 281°
2026-04-21 19:56 63.81496 -16.87215 18628 ft 259 kts 279°
2026-04-21 19:57 63.81704 -16.91262 18627 ft 259 kts 279°
2026-04-21 19:57 63.81908 -16.95315 18621 ft 258 kts 280°
2026-04-21 19:57 63.82105 -16.99308 18627 ft 259 kts 280°
2026-04-21 19:57 63.82306 -17.03356 18628 ft 258 kts 279°
2026-04-21 19:58 63.82503 -17.07398 18638 ft 258 kts 279°
2026-04-21 19:58 63.82699 -17.11445 18634 ft 259 kts 279°
2026-04-21 19:58 63.82894 -17.15490 18639 ft 258 kts 278°
2026-04-21 19:58 63.83087 -17.19533 18633 ft 259 kts 278°
2026-04-21 19:59 63.83281 -17.23584 18638 ft 259 kts 279°
2026-04-21 19:59 63.83473 -17.27636 18638 ft 258 kts 279°
2026-04-21 19:59 63.83663 -17.31684 18638 ft 259 kts 279°
2026-04-21 19:59 63.83851 -17.35736 18632 ft 259 kts 279°
2026-04-21 20:00 63.84039 -17.39800 18629 ft 259 kts 279°
2026-04-21 20:00 63.84227 -17.43860 18638 ft 259 kts 278°
2026-04-21 20:00 63.84413 -17.47912 18632 ft 258 kts 278°
2026-04-21 20:00 63.84598 -17.51957 18640 ft 258 kts 279°
2026-04-21 20:01 63.84781 -17.56007 18640 ft 258 kts 279°
2026-04-21 20:01 63.84963 -17.60054 18639 ft 258 kts 278°
2026-04-21 20:01 63.85145 -17.64106 18638 ft 258 kts 278°
2026-04-21 20:01 63.85325 -17.68150 18638 ft 258 kts 278°
2026-04-21 20:02 63.85444 -17.70834 18638 ft 258 kts 278°
2026-04-21 20:02 63.85683 -17.76247 18640 ft 258 kts 278°
2026-04-21 20:02 63.85860 -17.80293 18641 ft 258 kts 278°
2026-04-21 20:02 63.86036 -17.84343 18641 ft 258 kts 278°
2026-04-21 20:03 63.86210 -17.88390 18638 ft 258 kts 278°
2026-04-21 20:03 63.86381 -17.92385 18638 ft 258 kts 278°
2026-04-21 20:03 63.86554 -17.96439 18634 ft 258 kts 277°
2026-04-21 20:03 63.86725 -18.00470 18635 ft 257 kts 277°
2026-04-21 20:04 63.86895 -18.04498 18638 ft 256 kts 277°
2026-04-21 20:04 63.87063 -18.08524 18644 ft 256 kts 277°
2026-04-21 20:04 63.87229 -18.12543 18647 ft 256 kts 277°
2026-04-21 20:04 63.87394 -18.16560 18644 ft 256 kts 277°
2026-04-21 20:05 63.87558 -18.20578 18649 ft 256 kts 277°
2026-04-21 20:05 63.87721 -18.24599 18646 ft 256 kts 277°
2026-04-21 20:05 63.87883 -18.28621 18651 ft 256 kts 277°
2026-04-21 20:05 63.88044 -18.32657 18650 ft 257 kts 277°
2026-04-21 20:06 63.88205 -18.36694 18651 ft 257 kts 277°
2026-04-21 20:06 63.88365 -18.40739 18653 ft 257 kts 277°
2026-04-21 20:06 63.88524 -18.44784 18652 ft 257 kts 277°
2026-04-21 20:06 63.88678 -18.48822 18653 ft 257 kts 276°
2026-04-21 20:07 63.88473 -18.52852 18652 ft 259 kts 257°
2026-04-21 20:07 63.87981 -18.56789 18657 ft 260 kts 256°
2026-04-21 20:07 63.87657 -18.59407 18656 ft 260 kts 257°
2026-04-21 20:07 63.87685 -18.64765 18656 ft 255 kts 287°
2026-04-21 20:08 63.88236 -18.68569 18650 ft 254 kts 292°
2026-04-21 20:08 63.88797 -18.72362 18661 ft 254 kts 289°
2026-04-21 20:08 63.89259 -18.76244 18662 ft 255 kts 285°
2026-04-21 20:08 63.89615 -18.80193 18674 ft 256 kts 283°
2026-04-21 20:09 63.89847 -18.84206 18672 ft 256 kts 281°
2026-04-21 20:09 63.90154 -18.88179 18671 ft 256 kts 283°
2026-04-21 20:09 63.90493 -18.92089 18672 ft 256 kts 284°
2026-04-21 20:09 63.90850 -18.96041 18673 ft 256 kts 284°
2026-04-21 20:10 63.91213 -18.99994 18678 ft 256 kts 284°
2026-04-21 20:10 63.91578 -19.03953 18677 ft 256 kts 284°
2026-04-21 20:10 63.91946 -19.07919 18675 ft 256 kts 284°
2026-04-21 20:10 63.92314 -19.11880 18671 ft 256 kts 284°
2026-04-21 20:11 63.92684 -19.15843 18672 ft 256 kts 284°
2026-04-21 20:11 63.93040 -19.19806 18670 ft 256 kts 280°
2026-04-21 20:11 63.92976 -19.23870 18674 ft 259 kts 263°
2026-04-21 20:11 63.92649 -19.27892 18674 ft 259 kts 261°
2026-04-21 20:12 63.92366 -19.31927 18673 ft 258 kts 264°
2026-04-21 20:12 63.92200 -19.35988 18679 ft 258 kts 269°
2026-04-21 20:12 63.92150 -19.38688 18674 ft 258 kts 271°
2026-04-21 20:12 63.92161 -19.44131 18673 ft 257 kts 274°
2026-04-21 20:13 63.92232 -19.48189 18674 ft 257 kts 275°
2026-04-21 20:13 63.92331 -19.52246 18679 ft 257 kts 276°
2026-04-21 20:13 63.92376 -19.56305 18674 ft 258 kts 265°
2026-04-21 20:13 63.92230 -19.60349 18676 ft 256 kts 277°
2026-04-21 20:14 63.92471 -19.64368 18578 ft 259 kts 282°
2026-04-21 20:14 63.92790 -19.68391 18313 ft 256 kts 283°
2026-04-21 20:14 63.93114 -19.72353 17930 ft 254 kts 282°
2026-04-21 20:14 63.93389 -19.76301 17547 ft 252 kts 281°
2026-04-21 20:15 63.93644 -19.80231 17180 ft 251 kts 280°
2026-04-21 20:15 63.93891 -19.84151 16819 ft 250 kts 280°
2026-04-21 20:15 63.94141 -19.88042 16457 ft 247 kts 280°
2026-04-21 20:15 63.94308 -19.90602 16226 ft 246 kts 279°
2026-04-21 20:16 63.94558 -19.94437 15871 ft 244 kts 279°
2026-04-21 20:16 63.94818 -19.98236 15525 ft 242 kts 279°
2026-04-21 20:16 63.95077 -20.02009 15183 ft 241 kts 278°
2026-04-21 20:16 63.95286 -20.05787 14845 ft 240 kts 277°
2026-04-21 20:17 63.95468 -20.09534 14525 ft 238 kts 277°
2026-04-21 20:17 63.95698 -20.14427 14095 ft 234 kts 277°
2026-04-21 20:17 63.95816 -20.16916 13831 ft 234 kts 277°
2026-04-21 20:17 63.95990 -20.20546 13577 ft 228 kts 277°
2026-04-21 20:18 63.96162 -20.24102 13313 ft 224 kts 277°
2026-04-21 20:18 63.96334 -20.27607 13052 ft 221 kts 277°
2026-04-21 20:18 63.96505 -20.31072 12796 ft 219 kts 277°
2026-04-21 20:18 63.96672 -20.34487 12561 ft 216 kts 277°
2026-04-21 20:19 63.96838 -20.37873 12332 ft 214 kts 277°
2026-04-21 20:19 63.97004 -20.41244 12106 ft 214 kts 277°
2026-04-21 20:19 63.97165 -20.44562 11883 ft 213 kts 277°
2026-04-21 20:19 63.97328 -20.47901 11663 ft 212 kts 277°
2026-04-21 20:20 63.97489 -20.51237 11445 ft 212 kts 277°
2026-04-21 20:20 63.97649 -20.54564 11220 ft 211 kts 277°
2026-04-21 20:20 63.97808 -20.57875 11003 ft 210 kts 277°
2026-04-21 20:20 63.97965 -20.61167 10787 ft 209 kts 277°
2026-04-21 20:21 63.98123 -20.64488 10571 ft 212 kts 277°
2026-04-21 20:21 63.98282 -20.67837 10336 ft 213 kts 277°
2026-04-21 20:21 63.98441 -20.71197 10097 ft 214 kts 277°
2026-04-21 20:21 63.98600 -20.74564 9861 ft 214 kts 277°
2026-04-21 20:22 63.98756 -20.77923 9624 ft 213 kts 277°
2026-04-21 20:22 63.99064 -20.84600 9141 ft 211 kts 277°
2026-04-21 20:22 63.99214 -20.87912 8887 ft 210 kts 277°
2026-04-21 20:23 63.99364 -20.91214 8629 ft 209 kts 277°
2026-04-21 20:23 63.99512 -20.94489 8377 ft 208 kts 277°
2026-04-21 20:23 63.99659 -20.97754 8125 ft 207 kts 277°
2026-04-21 20:23 63.99805 -21.01014 7870 ft 206 kts 277°
2026-04-21 20:24 63.99950 -21.04259 7634 ft 206 kts 277°
2026-04-21 20:24 64.00094 -21.07494 7389 ft 205 kts 276°
2026-04-21 20:24 64.00236 -21.10718 7130 ft 204 kts 276°
2026-04-21 20:24 64.00376 -21.13889 6846 ft 203 kts 276°
2026-04-21 20:25 64.00515 -21.17075 6606 ft 202 kts 276°
2026-04-21 20:25 64.00652 -21.20257 6351 ft 201 kts 276°
2026-04-21 20:25 64.00789 -21.23411 6181 ft 196 kts 276°
2026-04-21 20:25 64.00921 -21.26480 6181 ft 196 kts 276°
2026-04-21 20:26 64.01055 -21.29581 6180 ft 195 kts 276°
2026-04-21 20:26 64.01184 -21.32627 6180 ft 188 kts 276°
2026-04-21 20:26 64.01302 -21.35434 6118 ft 171 kts 276°
2026-04-21 20:26 64.01410 -21.38031 5987 ft 164 kts 276°
2026-04-21 20:27 64.01537 -21.40784 5739 ft 181 kts 279°
2026-04-21 20:27 64.01894 -21.43559 5481 ft 186 kts 295°
2026-04-21 20:27 64.02527 -21.46156 5194 ft 187 kts 297°
2026-04-21 20:27 64.03114 -21.48821 4923 ft 189 kts 295°
2026-04-21 20:28 64.03687 -21.51516 4642 ft 189 kts 295°
2026-04-21 20:28 64.04266 -21.54216 4365 ft 189 kts 296°
2026-04-21 20:28 64.04850 -21.56907 4099 ft 189 kts 296°
2026-04-21 20:28 64.05436 -21.59588 3815 ft 188 kts 296°
2026-04-21 20:29 64.06014 -21.62246 3530 ft 184 kts 297°
2026-04-21 20:29 64.06543 -21.64670 3230 ft 157 kts 297°
2026-04-21 20:29 64.07005 -21.66785 2940 ft 142 kts 298°
2026-04-21 20:29 64.07434 -21.68748 2649 ft 134 kts 298°
2026-04-21 20:30 64.07834 -21.70578 2366 ft 124 kts 298°
2026-04-21 20:30 64.08209 -21.72293 2076 ft 118 kts 298°
2026-04-21 20:30 64.08567 -21.73939 1775 ft 112 kts 298°
2026-04-21 20:30 64.08904 -21.75482 1489 ft 102 kts 298°
2026-04-21 20:31 64.09215 -21.76902 1263 ft 96 kts 299°
2026-04-21 20:31 64.09488 -21.78173 1231 ft 83 kts 298°
2026-04-21 20:31 64.09731 -21.79281 1216 ft 75 kts 299°
2026-04-21 20:31 64.09993 -21.80461 948 ft 95 kts 298°
2026-04-21 20:32 64.10310 -21.81789 672 ft 93 kts 298°
2026-04-21 20:32 64.10602 -21.83119 654 ft 103 kts 297°
2026-04-21 20:32 64.10961 -21.84564 781 ft 104 kts 300°
2026-04-21 20:32 64.11276 -21.86129 692 ft 112 kts 294°
2026-04-21 20:33 64.11583 -21.87687 779 ft 109 kts 293°
2026-04-21 20:33 64.11891 -21.89313 497 ft 112 kts 292°
2026-04-21 20:33 64.12164 -21.90944 409 ft 107 kts 289°
2026-04-21 20:33 64.12540 -21.92451 293 ft 112 kts 300°
2026-04-21 20:34 64.12917 -21.93989 61 ft 102 kts 295°
2026-04-21 20:34 64.13183 -21.95192 37 ft 56 kts 297°
2026-04-21 20:34 64.13259 -21.95626 35 ft 24 kts 285°
2026-04-21 20:34 64.13267 -21.95717 35 ft 14 kts 114°
2026-04-21 20:35 64.13206 -21.95388 36 ft 28 kts 111°
2026-04-21 20:35 64.13127 -21.94917 38 ft 31 kts 108°
2026-04-21 20:35 64.13125 -21.94516 41 ft 12 kts 85°
2026-04-21 20:35 64.13126 -21.94499 41 ft 0 kts 86°